Hourly Weather Roundup
Issued by NWS Central Illinois

Home | Current Version | Previous Version | Text Only | Print | Product List | Glossary On
Versions: 1 2 3 4 5 6 7 8 9 10 11 12 13 14 15 16 17 18 19 20 21 22 23 24 25 26 27 28 29 30 31 32 33 34 35 36 37 38 39 40 41 42 43 44 45 46 47 48 49 50
000
NZUS43 KILX 200010
HWRILX

AREA WEATHER ROUNDUP
NATIONAL WEATHER SERVICE, LINCOLN IL
700 PM CDT SAT APR 19 2014


CITY           SKY/WX    TMP DP  RH WIND       PRES   REMARKS
BLOOMINGTON    MOCLDY    65  34  31 SE8       30.20F
CHAMPAIGN      PTCLDY    67  36  31 E8        30.21S
6HR MIN TEMP:  67; 6HR MAX TEMP:  74;

DANVILLE       CLEAR     65  37  35 E7        30.20S
6HR MIN TEMP:  65; 6HR MAX TEMP:  70;

DECATUR        MOCLDY    68  34  28 S5        30.20S
6HR MIN TEMP:  68; 6HR MAX TEMP:  74;

FLORA          NOT AVBL
GALESBURG      MOCLDY    70  39  32 SE9G16    30.15F
JACKSONVILLE   MOCLDY    70  40  33 SE9       30.18S
6HR MIN TEMP:  69; 6HR MAX TEMP:  75;

LACON          PTCLDY    68  34  28 SE6       30.18R
6HR MIN TEMP:  67; 6HR MAX TEMP:  72;

LAWRENCEVILLE  CLEAR     71  36  27 NE5       30.19F
6HR MIN TEMP:  71; 6HR MAX TEMP:  75;

LITCHFIELD     MOCLDY    67  46  47 CALM      30.18F
$$


CITY           SKY/WX    TMP DP  RH WIND       PRES   REMARKS
LINCOLN        MOCLDY    71  34  26 S7        30.17S
6HR MIN TEMP:  71; 6HR MAX TEMP:  75;

MACOMB         MOCLDY    72  35  25 SE16G22   30.17S
MATTOON        PTCLDY    67  40  37 S5        30.20F
6HR MIN TEMP:  66; 6HR MAX TEMP:  72;

MT CARMEL AP   CLEAR     72  36  26 SE6       30.19S
OLNEY-NOBLE AP CLEAR     68  39  34 CALM      30.20S
PARIS          CLEAR     67  41  38 E3        30.22S
6HR MIN TEMP:  67; 6HR MAX TEMP:  72;

PEORIA         MOCLDY    71  33  24 SE9       30.18S
6HR MIN TEMP:  69; 6HR MAX TEMP:  73;

PONTIAC        MOCLDY    70  36  28 SE10      30.20S
RANTOUL        PTCLDY    68  35  29 CALM      30.22S
6HR MIN TEMP:  68; 6HR MAX TEMP:  74;

ROBINSON       CLEAR     68  44  42 E7        30.21S
6HR MIN TEMP:  68; 6HR MAX TEMP:  75;

SPRINGFIELD    MOCLDY    71  39  31 SE7       30.18F
6HR MIN TEMP:  70; 6HR MAX TEMP:  75;

TAYLORVILLE    MOCLDY    68  41  37 SE5       30.19F
$$

...REGIONAL REPORTS...


CITY           SKY/WX    TMP DP  RH WIND       PRES   REMARKS
CHICAGO O`HARE CLOUDY    60  35  39 E10       30.22S
KANKAKEE       PTCLDY    64  38  38 SE7       30.22F
MOLINE         MOCLDY    70  33  25 S12G21    30.13S
MOUNT VERNON   PTCLDY   N/A N/A N/A E6        30.20S
PITTSFIELD     MOCLDY    73  34  24 SE13      30.16S
QUINCY         PTCLDY    73  30  20 S10       30.13F
ROCKFORD       CLOUDY    66  32  28 S15       30.19F
$$


CITY           SKY/WX    TMP DP  RH WIND       PRES   REMARKS
BURLINGTON     PTCLDY    71  40  32 SE10      30.12S
CEDAR RAPIDS   MOCLDY    70  41  34 S14       30.08F
DES MOINES     PTSUNNY   74  42  31 S12G20    30.05R
KIRKSVILLE     PTCLDY    72  42  34 S12       30.11R
OTTUMWA        PTCLDY    73  40  30 S15       30.08S
ST LOUIS       MOCLDY    73  41  31 SE13      30.16F
$$


CITY           SKY/WX    TMP DP  RH WIND       PRES   REMARKS
TERRE HAUTE    CLEAR     62  39  42 E7        30.21F
EVANSVILLE     CLEAR     71  38  29 NE6       30.18S
INDIANAPOLIS   PTCLDY    63  36  36 E9        30.23F
LAFAYETTE      CLEAR     59  37  44 E10       30.24S
MADISON        MOCLDY    65  35  33 S10       30.17S
MILWAUKEE      MOCLDY    46  34  62 SE7       30.24F
$$





USA.gov is the U.S. government's official web portal to all federal, state and local government web resources and services.